Regional Weather Roundup
Issued by NWS

Home | Current Version | Previous Version | Text Only | Print | Product List | Glossary Off
Versions: 1 2 3 4 5 6 7 8 9 10 11 12 13 14 15 16 17 18 19 20 21 22 23 24 25 26 27 28 29 30 31 32 33 34 35 36 37 38 39 40 41 42 43 44 45 46 47 48 49 50

000
ASUS43 KLOT 211004
RWRIL

ILLINOIS REGIONAL WEATHER ROUNDUP
NATIONAL WEATHER SERVICE CHICAGO/ROMEOVILLE IL
500 AM CDT THU SEP 21 2017

NOTE: "FAIR" INDICATES FEW OR NO CLOUDS BELOW 12,000 FEET WITH NO
SIGNIFICANT WEATHER AND/OR OBSTRUCTIONS TO VISIBILITY.

* THESE STATIONS ARE NOT UNDER NWS QUALITY CONTROL. THEY ALSO MAY NOT
  REPORT WEATHER SUCH AS PRECIPITATION OR FOG.

ILZ001-002-007-009-015-016-024-211100-
NORTHWEST ILLINOIS

CITY           SKY/WX    TMP DP  RH WIND       PRES   REMARKS
MOLINE         RAIN      69  65  86 N12       29.94F
STERLING*      RAIN      70  66  87 W10       29.98R
SAVANNA*       CLOUDY    70  66  89 CALM      29.94F
$$

ILZ003-004-008-010-011-017-018-211100-
NORTH CENTRAL ILLINOIS

CITY           SKY/WX    TMP DP  RH WIND       PRES   REMARKS
ROCKFORD       CLOUDY    70  68  93 E3        29.96S
FREEPORT*      CLOUDY    67  66  97 W6        29.97S
ROCHELLE*      CLOUDY    69  68  96 S7        29.94F
DE KALB*       CLOUDY    69  68  94 S3        29.97F
$$

ILZ005-006-012>014-019>023-211100-
NORTHEAST ILLINOIS

CITY           SKY/WX    TMP DP  RH WIND       PRES   REMARKS
CHICAGO-OHARE  CLOUDY    75  67  76 SW6       29.96R
CHICAGO-MIDWAY CLOUDY    75  68  78 S6        29.96R
AURORA         CLOUDY    68  67  96 CALM      29.96S
LANSING*       CLOUDY    72  69  91 SW3       29.99R
JOLIET*        CLOUDY    72  70  93 CALM      29.97S
WAUKEGAN       CLOUDY    71  69  93 CALM      29.95R
DUPAGE AIRPORT CLOUDY    70  69  97 CALM      29.96R FOG
KANKAKEE*      CLOUDY    72  68  88 SW5       30.00R
WHEELING       CLOUDY    75  70  84 CALM      29.96R
NORTHERLY ISL    N/A     75  66  73 S5          N/A
$$

LMZ740>746-211100-
SOUTHERN LAKE MICHIGAN

STATION/POSITION SKY/WX   TEMP    WIND        PRES    VSBY  WAVE
                          AIR SEA DIR/SP/G                  HT/PER
                          (F)     (DEG/KT/KT) (MB)    (MI)  (FT/S)
SOUTHERN BUOY              71 69  160/  8/  8 1013.5          1/ 3
WILMETTE HARBOR            73 70  180/  6/  6   N/A           1
HARRISON CRIB              77     180/ 12/ 13   N/A
CALUMET HARBOR             73        CALM     1014.3R
BURNS HARBOR               75     190/  8/ 12 1015.2R
MICHIGAN CITY              75     140/  8/ 10   N/A
MICHIGAN CITY 6N           72 69  180/  4/  4   N/A           1
ST. JOSEPH                 71 69  180/  8/  8 1014.9R         1
$$

ILZ025>027-034>036-040-047-049-050-058-095>099-211100-
WEST-CENTRAL ILLINOIS

CITY           SKY/WX    TMP DP  RH WIND       PRES   REMARKS
QUINCY         MOCLDY    77  70  79 S6        29.95R
GALESBURG*     CLOUDY    70  64  82 N6        30.00F
MACOMB*        CLOUDY    71  65  83 NE6       30.01S
$$

ILZ028>032-037-038-041>044-048-051>054-059>061-211100-
CENTRAL ILLINOIS

CITY           SKY/WX    TMP DP  RH WIND       PRES   REMARKS
BLOOMINGTON    CLOUDY    74  70  87 NW8       30.03R
DECATUR        MOCLDY    72  69  90 S3        30.01R
PEORIA         CLOUDY    73  67  81 CALM      29.99S
LACON*         CLOUDY    71  67  88 CALM      29.97S
LINCOLN*       CLOUDY    74  72  95 CALM      30.00R
SPRINGFIELD    MOCLDY    75  71  87 S3        29.99R
TAYLORVILLE    NOT AVBL
$$

ILZ033-039-045-046-055>057-062-063-211100-
EAST-CENTRAL ILLINOIS

CITY           SKY/WX    TMP DP  RH WIND       PRES   REMARKS
CHAMPAIGN      CLOUDY    71  68  90 S5        30.02R
MATTOON        CLEAR     72  71  97 S6        30.01R
PARIS*         CLEAR     69  69  99 SE3       30.04R
$$

ILZ079-100>102-211100-
SOUTHWEST ILLINOIS

CITY           SKY/WX    TMP DP  RH WIND       PRES   REMARKS
BELLEVILLE     CLEAR     70  67  90 CALM      30.02R
CAHOKIA*       CLEAR     70  66  87 CALM      29.98R
SPARTA*        CLEAR     72  71  96 S3        30.01R
$$

ILZ064>066-069>071-074>076-080>082-084>086-088>090-092>094-211100-
SOUTH-CENTRAL ILLINOIS

CITY           SKY/WX    TMP DP  RH WIND       PRES   REMARKS
CARBONDALE     CLEAR     68  68 100 CALM      30.00S FOG
MT. VERNON       N/A     70  69  97 CALM      30.02R
CENTRALIA*     CLEAR     72  71  97 CALM      30.00R
SALEM*         CLEAR     74  71  90 CALM      30.01R
METROPOLIS*      N/A     68  67  98 CALM      30.03R FOG
$$

ILZ067-068-072-073-078-083-087-091-211100-
SOUTHEAST ILLINOIS

CITY           SKY/WX    TMP DP  RH WIND       PRES   REMARKS
LAWRENCEVILLE  CLEAR     70  69  97 CALM      30.03R
FLORA*         CLEAR     72  70  94 SE3       30.02R
FAIRFIELD*     CLEAR     71  70  98 CALM      30.01R
HARRISBURG*    CLEAR     67  67  99 CALM      30.02S FOG
ROBINSON*      CLEAR     65  65 100 CALM      30.03R FOG
CARMI*         CLEAR     70  70  99 SE5       30.02R FOG
$$

ABBREVIATIONS USED IN REMARKS
   TC - TEMPERATURE IN CELSIUS
  WCI - WIND CHILL INDEX
   HX - HEAT INDEX
  VSB - VISIBILITY
$$





USA.gov is the U.S. government's official web portal to all federal, state and local government web resources and services.